Location: Beuerbach
(48.1459°N, 10.9174°E)
Time: 09:59:19
(UTC+00:00)

Cosmos 1455 - Pass Details

Date: 12 August 2024
Orbit: 432 x 446 km, 82.5° (Epoch: 07 September)

Event Time Altitude Azimuth Distance (km) Brightness Sun altitude
Exits shadow 02:51:04 - 179° (S) 1,838 4.6 -11.7°
Reaches altitude 10° 02:51:40 10° 178° (S) 1,584 4.3 -11.6°
Maximum altitude 02:55:05 64° 97° (E) 504 2.3 -11.2°
Drops below altitude 10° 02:58:31 10° 15° (NNE) 1,583 5.5 -10.7°
Sets 03:00:35 0° 13° (NNE) 2,455 6.5 -10.4°
